Flag for U.S.A. Weather past 2 weeks in Richmond, Virginia, U.S.A.

Now
84 °F

Overcast.


Feels Like: 85 °F
Forecast: 60 / 86 °F
Wind: 9 mph from Southeast

Location: Richmond International Airport

Current Time: Aug 29, 2015 at 5:44:26 PM

Latest Report: Aug 29, 2015 at 4:54 PM


Visibility: 10 mi

Pressure: 30.14 "Hg

Humidity: 48%

Dew point: 62 °F

Location of RichmondLocation

Historic Weather in Richmond — Graph

°F

Richmond temperature yesterday

Maximum temperature yesterday: 86 °F (at 2:54 PM)
Minimum temperature yesterday: 61 °F (at 6:54 AM)
Average temperature yesterday: 73 °F

Past Weeks' High & Low Weather Summary

 TemperatureHumidityPressure
High91 °F (Aug 17, 1:54 PM)94% (Aug 19, 5:51 PM)30.25 "Hg (Aug 19, 5:51 PM)
Low61 °F (Aug 28, 6:54 AM)38% (Aug 22, 2:54 PM)29.85 "Hg (Aug 24, 6:54 PM)
Average76 °F68%30.05 "Hg
* Reported Aug 14 3:54 PM — Aug 29 3:54 PM, Richmond, Weather by CustomWeather, © 2015

Note: Actual official high and low records may vary slightly from our data, if they occured in-between our weather recording intervals... More about our weather records

Advertising

Richmond weather history for previous 24 hours

 ConditionsComfort  
Time TempWeatherWind HumidityBarometerVisibility
3:54 PM
Sat, Aug 29
87 °FPartly sunny.9 mph42%30.15 "Hg10 mi
2:54 PM88 °FBroken clouds.6 mph39%30.17 "Hg10 mi
1:54 PM87 °FPartly sunny.6 mph39%30.19 "Hg10 mi
12:54 PM85 °FPartly sunny.7 mph45%30.21 "Hg10 mi
11:54 AM83 °FPartly sunny.6 mph44%30.24 "Hg10 mi
10:54 AM81 °FPartly sunny.5 mph51%30.24 "Hg10 mi
9:54 AM77 °FScattered clouds.3 mph60%30.25 "Hg10 mi
8:54 AM73 °FScattered clouds.3 mph66%30.25 "Hg10 mi
7:54 AM65 °FBroken clouds.No wind87%30.25 "Hg10 mi
6:54 AM63 °FPartly cloudy.No wind84%30.23 "Hg10 mi
5:54 AM65 °FPassing clouds.No wind81%30.21 "Hg10 mi
4:54 AM64 °FPassing clouds.No wind84%30.21 "Hg10 mi
2:54 AM66 °FPassing clouds.No wind81%30.21 "Hg10 mi
1:54 AM67 °FPassing clouds.No wind76%30.21 "Hg10 mi
12:54 AM68 °FClear.No wind73%30.22 "Hg10 mi
11:54 PM
Fri, Aug 28
68 °FClear.3 mph73%30.22 "Hg10 mi
10:54 PM69 °FClear.5 mph70%30.21 "Hg10 mi
9:54 PM71 °FClear.5 mph66%30.21 "Hg10 mi
8:54 PM71 °FClear.7 mph71%30.19 "Hg10 mi
7:54 PM75 °FSunny.6 mph62%30.15 "Hg10 mi
6:54 PM80 °FPassing clouds.6 mph51%30.15 "Hg10 mi
5:54 PM82 °FScattered clouds.6 mph46%30.15 "Hg10 mi
Weather by CustomWeather, © 2015

See weather overviewHow to use our weather pages